Flag for Canada Weather past 2 weeks in Dawson Creek, British Columbia, Canada

Now
43 °F

Sunny.


Feels Like: 34 °F
Forecast: 25 / 37 °F
Wind: 20 mph from West

Location: Dawson Creek Airport

Current Time: Mar 6, 2015 at 5:20:21 PM

Latest Report: Mar 6, 2015 at 5:00 PM


Visibility: 9 mi

Pressure: 30.20 "Hg

Humidity: 46%

Dew point: 23 °F

Location of Dawson CreekLocation

Historic Weather in Dawson Creek — Graph

°F

Dawson Creek temperature yesterday

Maximum temperature yesterday: 45 °F (at 2:00 PM)
Minimum temperature yesterday: 30 °F (at 5:00 AM)
Average temperature yesterday: 39 °F

Past Weeks' High & Low Weather Summary

 TemperatureHumidityPressure
High52 °F (Feb 23, 4:00 PM)100% (Feb 20, 12:00 AM)30.66 "Hg (Feb 20, 12:00 AM)
Low-6 °F (Mar 3, 8:00 AM)39% (Feb 24, 1:00 AM)29.86 "Hg (Mar 6, 12:00 AM)
Average26 °F72%30.28 "Hg
* Reported Feb 19 4:00 PM — Mar 6 4:00 PM, Dawson Creek, Weather by CustomWeather, © 2015

Note: Actual official high and low records may vary slightly from our data, if they occured in-between our weather recording intervals... More about our weather records

Advertising

Dawson Creek weather history for previous 24 hours

 ConditionsComfort  
Time TempWeatherWind HumidityBarometerVisibility
4:00 PM
Fri, Mar 6
43 °FOvercast.18 mph46%30.21 "Hg9 mi
3:00 PM43 °FPassing clouds.17 mph49%30.21 "Hg9 mi
2:00 PM43 °FSunny.22 mph42%30.21 "Hg9 mi
1:00 PM41 °FSunny.15 mph53%30.22 "Hg9 mi
12:00 PM41 °FScattered clouds.21 mph49%30.20 "Hg9 mi
11:00 AM41 °FSunny.18 mph53%30.18 "Hg9 mi
10:00 AM39 °FSunny.16 mph56%30.16 "Hg9 mi
9:00 AM37 °FPartly sunny.16 mph65%30.13 "Hg9 mi
8:00 AM39 °FOvercast.15 mph61%30.09 "Hg9 mi
7:00 AM39 °FPassing clouds.16 mph61%30.06 "Hg9 mi
6:00 AM41 °FPassing clouds.23 mph57%30.02 "Hg9 mi
5:00 AM41 °FOvercast.25 mph57%29.98 "Hg9 mi
4:00 AM41 °FOvercast.26 mph61%29.95 "Hg9 mi
3:00 AM41 °FPassing clouds.24 mph61%29.93 "Hg9 mi
2:00 AM43 °FPassing clouds.24 mph57%29.90 "Hg9 mi
1:00 AM43 °FOvercast.22 mph61%29.88 "Hg9 mi
12:00 AM43 °FOvercast.20 mph66%29.86 "Hg9 mi
11:00 PM
Thu, Mar 5
43 °FOvercast.17 mph66%29.88 "Hg9 mi
10:00 PM43 °FOvercast.10 mph66%29.89 "Hg9 mi
9:00 PM41 °FMostly cloudy.13 mph70%29.91 "Hg9 mi
8:00 PM43 °FOvercast.9 mph61%29.93 "Hg9 mi
7:00 PM43 °FOvercast.10 mph61%29.93 "Hg9 mi
6:00 PM43 °FOvercast.8 mph61%29.95 "Hg9 mi
5:00 PM43 °FOvercast.13 mph57%29.97 "Hg9 mi
Weather by CustomWeather, © 2015

See weather overviewHow to use our weather pages